Hourly Weather Roundup
Issued by NWS Central Illinois

Home | Current Version | Previous Version | Text Only | Print | Product List | Glossary On
Versions: 1 2 3 4 5 6 7 8 9 10 11 12 13 14 15 16 17 18 19 20 21 22 23 24 25 26 27 28 29 30 31 32 33 34 35 36 37 38 39 40 41 42 43 44 45 46 47 48 49 50
569
NZUS43 KILX 112310
HWRILX

Area Weather Roundup
National Weather Service Lincoln IL
500 PM CST MON DEC 11 2017

NOTE:  "FAIR" indicates few or no clouds below 12,000 feet, with
       no sigificant weather and/or obstructions to visibility.


CITY           SKY/WX    TMP DP  RH WIND       PRES   REMARKS
Bloomington    MOCLDY    41  26  55 NW21G30   29.72R WCI  32
Champaign      CLEAR     42  25  50 W17       29.70R WCI  34
Danville       PTCLDY    43  25  48 W18G28    29.65R
Decatur        CLOUDY    46  28  49 W16G30    29.75R
Effingham      CLOUDY    49  28  44 W18G24    29.78R
Flora          PTCLDY    52  27  38 W15G30    29.80R
Galesburg      CLOUDY    38  33  81 NW18G26   29.82R WCI  28
Jacksonville   CLOUDY    44  31  60 W25G36    29.82R WCI  35
Lacon          CLOUDY    37  31  79 NW17G25   29.76R WCI  27
Lawrenceville  CLEAR     54  25  32 W21G37    29.75R
Litchfield     CLOUDY    47  30  51 NW20G35   29.83R
$$


CITY           SKY/WX    TMP DP  RH WIND       PRES   REMARKS
Lincoln        MOCLDY    44  29  56 W12G22    29.77R
Macomb         CLOUDY    40  33  74 NW26G36   29.85R WCI  29
Mattoon        MOCLDY    46  26  45 W17G24    29.73R
Mt Carmel AP   NOT AVBL
Olney-Noble AP CLEAR     49  22  34 W21G26    29.79R
Paris AP       CLEAR     44  26  49 W17G30    29.72R
Peoria         CLOUDY    41  27  57 NW10G26   29.78R WCI  35
Pontiac        MOCLDY    40  28  63 NW16      29.71R WCI  31
Rantoul        PTCLDY    42  27  55 W16       29.69R WCI  34
Robinson       CLEAR     48  25  40 W22G37    29.76R
Springfield    CLOUDY    47  32  56 NW25G38   29.79R
Taylorville    CLOUDY    46  30  53 W22G29    29.79R
$$

...REGIONAL REPORTS...


CITY           SKY/WX    TMP DP  RH WIND       PRES   REMARKS
Chicago O`Hare LGT SNOW  33  29  85 NW9       29.73R FOG     WCI  25
Kankakee       PTCLDY    37  26  66 NE6       29.67R WCI  32
Moline         CLOUDY    36  33  89 NW15      29.82R WCI  27
Mount Sterling CLOUDY    43  32  65 NW24G31   29.84R WCI  33
Mount Vernon   PTCLDY    52  27  38 W10G22    29.83R
Pittsfield     CLOUDY    47  32  56 NW22G29   29.86R
Quincy         CLOUDY    44  33  65 NW28G38   29.87R WCI  34
Rockford       CLOUDY    31  30  96 NW5       29.78R FOG     WCI  26
$$


CITY           SKY/WX    TMP DP  RH WIND       PRES   REMARKS
Burlington     CLOUDY    39  34  82 NW18G26   29.86R WCI  30
Cedar Rapids   CLOUDY    36  34  92 NW17G31   29.86R WCI  26
Des Moines     CLOUDY    38  30  73 NW21G29   30.01R WCI  28
Kirksville     CLOUDY    44  34  67 NW14G22   29.94R
Ottumwa        CLOUDY    41  31  67 NW25G41   29.93R WCI  31
St Louis       MOCLDY    51  29  42 NW22G37   29.86R
$$


CITY           SKY/WX    TMP DP  RH WIND       PRES   REMARKS
Terre Haute    CLEAR     49  23  36 W21G30    29.71R HAZE
Evansville     CLOUDY    52  30  43 W9        29.77R
Indianapolis   MOCLDY    43  28  55 S8        29.66F
Lafayette      CLOUDY    42  29  59 W5        29.65R
Madison        CLOUDY    32  26  78 NW8       29.78R WCI  25
Milwaukee      MOCLDY    34  27  75 NW9       29.73R WCI  27
$$






USA.gov is the U.S. government's official web portal to all federal, state and local government web resources and services.